sat.trackr.live / text

‹ back to catalog

STARLINK-2706

NORAD 48481 · 2021-040BF

PAYLOAD ACTIVE UNKNOWN

§ Identity

Operator
Country
US
Launch date
2021-05-09
Launch site
AFETR
Launch vehicle
Mass (kg)
RCS (m²)

Purposes: comms

External: N2YO · Heavens-Above · Gunter

§ Orbital elements

Epoch: 2026-09-19T22:47:55.481280Z

Period
94.01 min
Inclination
53.1617°
Eccentricity
0.0001086
Mean motion
15.31699472 rev/d
Perigee alt
470.0 km
Apogee alt
471.5 km
Semi-major
6,848.9 km
B*
2.5515e-7
RAAN
9.4442°
Arg perigee
61.5714°
Mean anomaly
298.5397°
Rev number
29,623

§ Raw data

STARLINK-27061 48481U 21040BF  26262.94994770 -.00000357  00000+0  25515-6 0  99982 48481  53.1617   9.4442 0001086  61.5714 298.5397 15.31699472296234

JSON: /api/v1/satellites/48481 · /tle

For live sub-satellite position, see the globe view (requires WebGL).

§ Visibility from observer

Set your observer location to see the next 7 days of passes ≥ 10°. The values pass through the URL so the page stays shareable.

No JS? Fill the form by hand. The geolocation button needs JavaScript.